| time (UTC) | temp C | wind direction | speed KPH | gust KPH | rain 1hr cm | rain 24hr cm | rain mn cm | humidity % | barometer mb |
| 20260906121032 | 23 | 193 | 0.0 | 0.0 | 0.00 | 0.00 | 0.00 | 91 | 1004.0 |
| 20260906120527 | 23 | 193 | 0.0 | 0.0 | 0.00 | 0.00 | 0.00 | 91 | 1004.1 |
| 20260906120026 | 23 | 193 | 0.0 | 0.0 | 0.00 | 0.00 | 0.00 | 91 | 1004.0 |
| 20260906115525 | 23 | 194 | 0.0 | 0.0 | 0.00 | 0.00 | 0.00 | 91 | 1003.8 |
| 20260906115020 | 23 | 205 | 1.6 | 1.6 | 0.00 | 0.00 | 0.00 | 91 | 1003.8 |
| 20260906114520 | 23 | 191 | 0.0 | 0.0 | 0.00 | 0.00 | 0.00 | 91 | 1003.9 |
| 20260906114016 | 23 | 189 | 0.0 | 0.0 | 0.00 | 0.00 | 0.00 | 91 | 1003.6 |
| 20260906113514 | 23 | 188 | 0.0 | 0.0 | 0.00 | 0.00 | 0.00 | 91 | 1003.7 |
| 20260906113010 | 23 | 192 | 0.0 | 0.0 | 0.00 | 0.00 | 0.00 | 91 | 1003.6 |
| 20260906112505 | 23 | 191 | 0.0 | 0.0 | 0.00 | 0.00 | 0.00 | 91 | 1003.4 |
| 20260906112001 | 23 | 191 | 0.0 | 0.0 | 0.00 | 0.00 | 0.00 | 90 | 1003.4 |
| 20260906111500 | 23 | 191 | 0.0 | 0.0 | 0.00 | 0.00 | 0.00 | 90 | 1003.4 |
| 20260906110955 | 23 | 190 | 0.0 | 0.0 | 0.00 | 0.00 | 0.00 | 90 | 1003.2 |
| 20260906110450 | 23 | 190 | 0.0 | 0.0 | 0.00 | 0.00 | 0.00 | 90 | 1003.2 |
| 20260906105949 | 23 | 190 | 0.0 | 0.0 | 0.00 | 0.00 | 0.00 | 90 | 1003.0 |
| 20260906105445 | 23 | 189 | 0.0 | 0.0 | 0.00 | 0.00 | 0.00 | 89 | 1003.1 |
| 20260906104941 | 23 | 189 | 0.0 | 0.0 | 0.00 | 0.00 | 0.00 | 89 | 1003.1 |
| 20260906104440 | 23 | 192 | 0.0 | 0.0 | 0.00 | 0.00 | 0.00 | 89 | 1003.1 |
| 20260906103939 | 23 | 192 | 0.0 | 0.0 | 0.00 | 0.00 | 0.00 | 89 | 1003.0 |
| 20260906103437 | 23 | 191 | 0.0 | 0.0 | 0.00 | 0.00 | 0.00 | 88 | 1002.9 |
| 20260906102932 | 23 | 187 | 0.0 | 0.0 | 0.00 | 0.00 | 0.00 | 88 | 1002.7 |
| 20260906102427 | 24 | 189 | 0.0 | 0.0 | 0.00 | 0.00 | 0.00 | 87 | 1002.5 |
| 20260906101922 | 24 | 192 | 0.0 | 0.0 | 0.00 | 0.00 | 0.00 | 87 | 1002.7 |
| 20260906101417 | 24 | 192 | 0.0 | 1.6 | 0.00 | 0.00 | 0.00 | 87 | 1002.7 |
| 20260906100913 | 24 | 190 | 0.0 | 0.0 | 0.00 | 0.00 | 0.00 | 86 | 1002.5 |
| 20260906100412 | 25 | 189 | 0.0 | 0.0 | 0.00 | 0.00 | 0.00 | 86 | 1002.6 |
| 20260906095907 | 25 | 191 | 0.0 | 0.0 | 0.00 | 0.00 | 0.00 | 85 | 1002.5 |
| 20260906095403 | 25 | 191 | 0.0 | 0.0 | 0.00 | 0.00 | 0.00 | 85 | 1002.5 |
| 20260906094901 | 25 | 190 | 0.0 | 0.0 | 0.00 | 0.00 | 0.00 | 84 | 1002.6 |
| 20260906094356 | 25 | 190 | 0.0 | 0.0 | 0.00 | 0.00 | 0.00 | 84 | 1002.4 |
| 20260906093853 | 25 | 189 | 0.0 | 0.0 | 0.00 | 0.00 | 0.00 | 84 | 1002.8 |
| 20260906093349 | 25 | 186 | 0.0 | 0.0 | 0.00 | 0.00 | 0.00 | 84 | 1002.5 |
| 20260906092843 | 25 | 187 | 0.0 | 0.0 | 0.00 | 0.00 | 0.00 | 83 | 1002.6 |
| 20260906092343 | 25 | 196 | 0.0 | 1.6 | 0.00 | 0.00 | 0.00 | 82 | 1002.7 |
| 20260906091839 | 25 | 193 | 0.0 | 1.6 | 0.00 | 0.00 | 0.00 | 82 | 1002.6 |
| 20260906091335 | 25 | 191 | 0.0 | 0.0 | 0.00 | 0.00 | 0.00 | 82 | 1002.4 |
| 20260906090826 | 26 | 194 | 0.0 | 0.0 | 0.00 | 0.00 | 0.00 | 81 | 1002.4 |
| 20260906090324 | 26 | 195 | 0.0 | 0.0 | 0.00 | 0.00 | 0.00 | 81 | 1002.2 |
| 20260906085819 | 26 | 195 | 0.0 | 1.6 | 0.00 | 0.00 | 0.00 | 80 | 1002.3 |
| 20260906085318 | 26 | 191 | 3.2 | 3.2 | 0.00 | 0.00 | 0.00 | 80 | 1002.4 |
| 20260906084812 | 26 | 202 | 1.6 | 3.2 | 0.00 | 0.00 | 0.00 | 79 | 1002.4 |
| 20260906084312 | 26 | 195 | 1.6 | 4.8 | 0.00 | 0.00 | 0.00 | 79 | 1002.3 |
| 20260906083807 | 26 | 185 | 4.8 | 4.8 | 0.00 | 0.00 | 0.00 | 79 | 1002.3 |
| 20260906083303 | 26 | 249 | 3.2 | 4.8 | 0.00 | 0.00 | 0.00 | 78 | 1002.4 |
| 20260906082757 | 26 | 193 | 3.2 | 4.8 | 0.00 | 0.00 | 0.00 | 78 | 1002.2 |
| 20260906082252 | 26 | 196 | 3.2 | 4.8 | 0.00 | 0.00 | 0.00 | 78 | 1002.0 |
| 20260906081748 | 26 | 200 | 1.6 | 1.6 | 0.00 | 0.00 | 0.00 | 77 | 1002.2 |
| 20260906081244 | 26 | 197 | 1.6 | 4.8 | 0.00 | 0.00 | 0.00 | 77 | 1002.2 |
| 20260906080740 | 26 | 196 | 3.2 | 4.8 | 0.00 | 0.00 | 0.00 | 77 | 1002.0 |
| 20260906080236 | 26 | 185 | 1.6 | 4.8 | 0.00 | 0.00 | 0.00 | 77 | 1002.3 |
| 20260906075735 | 27 | 201 | 4.8 | 6.4 | 0.00 | 0.00 | 0.00 | 76 | 1002.2 |
| 20260906075230 | 27 | 189 | 3.2 | 4.8 | 0.00 | 0.00 | 0.00 | 76 | 1002.4 |
| 20260906074726 | 27 | 197 | 3.2 | 3.2 | 0.00 | 0.00 | 0.00 | 76 | 1002.5 |
| 20260906074225 | 27 | 191 | 1.6 | 3.2 | 0.00 | 0.00 | 0.00 | 76 | 1002.4 |
| 20260906073724 | 27 | 185 | 1.6 | 4.8 | 0.00 | 0.00 | 0.00 | 76 | 1002.5 |
| 20260906073219 | 27 | 203 | 0.0 | 3.2 | 0.00 | 0.00 | 0.00 | 76 | 1002.4 |
| 20260906072715 | 27 | 191 | 1.6 | 3.2 | 0.00 | 0.00 | 0.00 | 75 | 1002.8 |
| 20260906072210 | 27 | 194 | 0.0 | 1.6 | 0.00 | 0.00 | 0.00 | 75 | 1002.6 |
| 20260906071706 | 27 | 197 | 1.6 | 6.4 | 0.00 | 0.00 | 0.00 | 75 | 1002.5 |
| 20260906071201 | 27 | 214 | 3.2 | 4.8 | 0.00 | 0.00 | 0.00 | 76 | 1002.6 |
| 20260906070657 | 27 | 183 | 1.6 | 4.8 | 0.00 | 0.00 | 0.00 | 76 | 1002.6 |
| 20260906070153 | 27 | 199 | 3.2 | 3.2 | 0.00 | 0.00 | 0.00 | 77 | 1002.5 |
| 20260906065652 | 27 | 196 | 1.6 | 3.2 | 0.00 | 0.00 | 0.00 | 77 | 1002.6 |
| 20260906065148 | 27 | 202 | 3.2 | 4.8 | 0.00 | 0.00 | 0.00 | 77 | 1002.7 |
| 20260906064643 | 27 | 199 | 1.6 | 3.2 | 0.00 | 0.00 | 0.00 | 78 | 1002.6 |
| 20260906064138 | 26 | 200 | 3.2 | 3.2 | 0.00 | 0.00 | 0.00 | 78 | 1002.7 |
| 20260906063633 | 26 | 196 | 1.6 | 3.2 | 0.00 | 0.00 | 0.00 | 78 | 1002.7 |
| 20260906063129 | 26 | 190 | 0.0 | 3.2 | 0.00 | 0.00 | 0.00 | 78 | 1002.8 |
| 20260906062625 | 26 | 203 | 1.6 | 3.2 | 0.00 | 0.00 | 0.00 | 79 | 1002.8 |
| 20260906062124 | 26 | 189 | 0.0 | 1.6 | 0.00 | 0.00 | 0.00 | 79 | 1002.9 |
| 20260906061620 | 26 | 191 | 1.6 | 1.6 | 0.00 | 0.00 | 0.00 | 80 | 1002.7 |
| 20260906061119 | 26 | 187 | 0.0 | 1.6 | 0.00 | 0.00 | 0.00 | 80 | 1002.9 |
| 20260906060616 | 26 | 150 | 1.6 | 3.2 | 0.00 | 0.00 | 0.00 | 80 | 1003.0 |
| 20260906060114 | 26 | 137 | 1.6 | 3.2 | 0.00 | 0.00 | 0.00 | 80 | 1002.8 |
| 20260906055609 | 26 | 189 | 0.0 | 0.0 | 0.00 | 0.00 | 0.00 | 80 | 1002.8 |
| 20260906055104 | 26 | 186 | 0.0 | 3.2 | 0.00 | 0.00 | 0.00 | 79 | 1002.9 |
| 20260906054604 | 26 | 189 | 0.0 | 0.0 | 0.00 | 0.00 | 0.00 | 79 | 1002.8 |
| 20260906054059 | 26 | 186 | 1.6 | 1.6 | 0.00 | 0.00 | 0.00 | 79 | 1002.8 |
| 20260906053555 | 26 | 170 | 1.6 | 3.2 | 0.00 | 0.00 | 0.00 | 79 | 1002.8 |
| 20260906053051 | 26 | 187 | 0.0 | 0.0 | 0.00 | 0.00 | 0.00 | 79 | 1002.8 |
| 20260906052546 | 26 | 187 | 0.0 | 4.8 | 0.00 | 0.00 | 0.00 | 78 | 1003.0 |
| 20260906052043 | 26 | 188 | 0.0 | 1.6 | 0.00 | 0.00 | 0.00 | 78 | 1002.9 |
| 20260906051538 | 26 | 176 | 0.0 | 1.6 | 0.00 | 0.00 | 0.00 | 78 | 1002.9 |
| 20260906051034 | 26 | 186 | 0.0 | 0.0 | 0.00 | 0.00 | 0.00 | 78 | 1003.0 |
| 20260906050529 | 27 | 189 | 0.0 | 1.6 | 0.00 | 0.00 | 0.00 | 77 | 1002.8 |
| 20260906050024 | 27 | 191 | 0.0 | 0.0 | 0.00 | 0.00 | 0.00 | 77 | 1003.0 |
| 20260906045522 | 27 | 186 | 0.0 | 0.0 | 0.00 | 0.00 | 0.00 | 76 | 1003.0 |
| 20260906045018 | 27 | 188 | 3.2 | 3.2 | 0.00 | 0.00 | 0.00 | 76 | 1003.1 |
| 20260906044508 | 27 | 186 | 0.0 | 1.6 | 0.00 | 0.00 | 0.00 | 76 | 1002.9 |
| 20260906044004 | 27 | 223 | 3.2 | 4.8 | 0.00 | 0.00 | 0.00 | 76 | 1003.1 |
| 20260906043458 | 27 | 186 | 0.0 | 0.0 | 0.00 | 0.00 | 0.00 | 76 | 1003.5 |
| 20260906042949 | 27 | 195 | 0.0 | 4.8 | 0.00 | 0.00 | 0.00 | 75 | 1003.2 |
| 20260906042448 | 27 | 189 | 0.0 | 1.6 | 0.00 | 0.00 | 0.00 | 76 | 1003.2 |
| 20260906041948 | 27 | 193 | 0.0 | 0.0 | 0.00 | 0.00 | 0.00 | 76 | 1003.0 |
| 20260906041444 | 27 | 178 | 1.6 | 1.6 | 0.00 | 0.00 | 0.00 | 77 | 1003.0 |
| 20260906040943 | 27 | 182 | 1.6 | 1.6 | 0.00 | 0.00 | 0.00 | 79 | 1003.2 |
| 20260906040438 | 27 | 186 | 0.0 | 0.0 | 0.00 | 0.00 | 0.00 | 79 | 1002.8 |
| 20260906035933 | 27 | 183 | 0.0 | 0.0 | 0.00 | 0.00 | 0.00 | 78 | 1002.8 |
| 20260906035429 | 27 | 192 | 0.0 | 0.0 | 0.00 | 0.00 | 0.00 | 78 | 1002.8 |
| 20260906034925 | 27 | 190 | 0.0 | 0.0 | 0.00 | 0.00 | 0.00 | 78 | 1002.9 |
| 20260906034419 | 28 | 197 | 0.0 | 1.6 | 0.00 | 0.00 | 0.00 | 77 | 1002.9 |
| 20260906033915 | 28 | 189 | 0.0 | 0.0 | 0.00 | 0.00 | 0.00 | 75 | 1002.9 |
| 20260906033414 | 28 | 196 | 0.0 | 0.0 | 0.00 | 0.00 | 0.00 | 76 | 1002.9 |
| 20260906032911 | 28 | 189 | 0.0 | 0.0 | 0.00 | 0.00 | 0.00 | 75 | 1002.9 |
| 20260906032407 | 28 | 189 | 0.0 | 0.0 | 0.00 | 0.00 | 0.00 | 75 | 1003.0 |
| 20260906031906 | 27 | 189 | 0.0 | 0.0 | 0.00 | 0.00 | 0.00 | 75 | 1002.8 |
| 20260906031402 | 28 | 184 | 0.0 | 0.0 | 0.00 | 0.00 | 0.00 | 75 | 1002.7 |
| 20260906030857 | 28 | 186 | 0.0 | 0.0 | 0.00 | 0.00 | 0.00 | 75 | 1002.5 |
| 20260906030352 | 28 | 190 | 0.0 | 0.0 | 0.00 | 0.00 | 0.00 | 75 | 1002.3 |
| 20260906025847 | 28 | 190 | 0.0 | 0.0 | 0.00 | 0.00 | 0.00 | 75 | 1002.3 |
| 20260906025341 | 28 | 191 | 0.0 | 0.0 | 0.00 | 0.00 | 0.00 | 74 | 1002.4 |
| 20260906024840 | 28 | 190 | 0.0 | 0.0 | 0.00 | 0.00 | 0.00 | 74 | 1002.3 |
| 20260906024339 | 28 | 190 | 0.0 | 0.0 | 0.00 | 0.00 | 0.00 | 74 | 1002.1 |
| 20260906023835 | 28 | 191 | 0.0 | 0.0 | 0.00 | 0.00 | 0.00 | 73 | 1002.1 |
| 20260906023331 | 28 | 190 | 0.0 | 0.0 | 0.00 | 0.00 | 0.00 | 73 | 1001.9 |
| 20260906022826 | 28 | 190 | 0.0 | 0.0 | 0.00 | 0.00 | 0.00 | 73 | 1001.9 |
| 20260906022321 | 28 | 190 | 0.0 | 0.0 | 0.00 | 0.00 | 0.00 | 73 | 1001.7 |
| 20260906021817 | 28 | 190 | 0.0 | 0.0 | 0.00 | 0.00 | 0.00 | 73 | 1001.9 |
| 20260906021315 | 28 | 190 | 0.0 | 0.0 | 0.00 | 0.00 | 0.00 | 72 | 1001.7 |
| 20260906020810 | 28 | 190 | 0.0 | 0.0 | 0.00 | 0.00 | 0.00 | 72 | 1001.5 |
| 20260906020310 | 28 | 190 | 0.0 | 0.0 | 0.00 | 0.00 | 0.00 | 72 | 1001.5 |
| 20260906015804 | 28 | 190 | 0.0 | 0.0 | 0.00 | 0.00 | 0.00 | 72 | 1001.6 |
| 20260906015305 | 28 | 190 | 0.0 | 0.0 | 0.00 | 0.00 | 0.00 | 71 | 1001.5 |
| 20260906014803 | 28 | 190 | 0.0 | 0.0 | 0.00 | 0.00 | 0.00 | 71 | 1001.6 |
| 20260906014258 | 28 | 193 | 0.0 | 0.0 | 0.00 | 0.00 | 0.00 | 71 | 1001.5 |
| 20260906013755 | 29 | 192 | 0.0 | 0.0 | 0.00 | 0.00 | 0.00 | 71 | 1001.4 |
| 20260906013255 | 29 | 192 | 0.0 | 0.0 | 0.00 | 0.00 | 0.00 | 71 | 1001.3 |
| 20260906012750 | 30 | 193 | 0.0 | 0.0 | 0.00 | 0.00 | 0.00 | 70 | 1001.3 |
| 20260906012245 | 30 | 193 | 0.0 | 0.0 | 0.00 | 0.00 | 0.00 | 69 | 1001.3 |
| 20260906011741 | 30 | 193 | 0.0 | 0.0 | 0.00 | 0.00 | 0.00 | 68 | 1001.4 |
| 20260906011240 | 30 | 193 | 0.0 | 0.0 | 0.00 | 0.00 | 0.00 | 67 | 1001.4 |
| 20260906010736 | 30 | 193 | 0.0 | 0.0 | 0.00 | 0.00 | 0.00 | 65 | 1001.4 |
| 20260906010232 | 30 | 193 | 0.0 | 0.0 | 0.00 | 0.00 | 0.00 | 65 | 1001.3 |
| 20260906005727 | 30 | 193 | 0.0 | 0.0 | 0.00 | 0.00 | 0.00 | 65 | 1001.4 |
| 20260906005220 | 30 | 192 | 0.0 | 0.0 | 0.00 | 0.00 | 0.00 | 65 | 1001.4 |
| 20260906004719 | 31 | 192 | 0.0 | 0.0 | 0.00 | 0.00 | 0.00 | 65 | 1001.5 |
| 20260906004214 | 31 | 194 | 0.0 | 0.0 | 0.00 | 0.00 | 0.00 | 64 | 1001.4 |
| 20260906003709 | 31 | 192 | 0.0 | 0.0 | 0.00 | 0.00 | 0.00 | 63 | 1001.6 |
| 20260906003205 | 31 | 192 | 0.0 | 0.0 | 0.00 | 0.00 | 0.00 | 62 | 1001.7 |
| 20260906002705 | 32 | 191 | 0.0 | 0.0 | 0.00 | 0.00 | 0.00 | 61 | 1001.5 |
| 20260906002200 | 32 | 193 | 0.0 | 0.0 | 0.00 | 0.00 | 0.00 | 61 | 1001.4 |
| 20260906001655 | 32 | 193 | 0.0 | 0.0 | 0.00 | 0.00 | 0.00 | 59 | 1001.4 |
| 20260906001150 | 32 | 192 | 0.0 | 1.6 | 0.00 | 0.00 | 0.00 | 59 | 1001.7 |
| 20260906000646 | 32 | 194 | 0.0 | 0.0 | 0.00 | 0.00 | 0.00 | 59 | 1001.5 |
| 20260906000141 | 32 | 193 | 0.0 | 0.0 | 0.00 | 0.00 | 0.00 | 59 | 1001.5 |
| 20260905235640 | 32 | 193 | 0.0 | 0.0 | 0.00 | 0.00 | 0.00 | 58 | 1001.5 |
| 20260905235135 | 32 | 183 | 0.0 | 1.6 | 0.00 | 0.00 | 0.00 | 58 | 1001.3 |
| 20260905234630 | 32 | 193 | 0.0 | 0.0 | 0.00 | 0.00 | 0.00 | 58 | 1001.4 |
| 20260905234126 | 33 | 193 | 0.0 | 0.0 | 0.00 | 0.00 | 0.00 | 58 | 1001.5 |
| 20260905233626 | 33 | 191 | 0.0 | 0.0 | 0.00 | 0.00 | 0.00 | 57 | 1001.3 |
| 20260905233120 | 33 | 189 | 0.0 | 1.6 | 0.00 | 0.00 | 0.00 | 57 | 1001.4 |
| 20260905232615 | 33 | 193 | 0.0 | 1.6 | 0.00 | 0.00 | 0.00 | 57 | 1001.4 |
| 20260905232111 | 34 | 193 | 0.0 | 0.0 | 0.00 | 0.00 | 0.00 | 57 | 1001.5 |
| 20260905231606 | 34 | 189 | 0.0 | 1.6 | 0.00 | 0.00 | 0.00 | 56 | 1001.4 |
| 20260905231102 | 35 | 195 | 0.0 | 0.0 | 0.00 | 0.00 | 0.00 | 54 | 1001.5 |
| 20260905230602 | 35 | 193 | 0.0 | 0.0 | 0.00 | 0.00 | 0.00 | 55 | 1001.4 |
| 20260905225600 | 35 | 189 | 0.0 | 0.0 | 0.00 | 0.00 | 0.00 | 54 | 1001.4 |
| 20260905225055 | 35 | 201 | 1.6 | 1.6 | 0.00 | 0.00 | 0.00 | 53 | 1001.3 |
| 20260905224555 | 36 | 194 | 0.0 | 1.6 | 0.00 | 0.00 | 0.00 | 53 | 1001.3 |
| 20260905224055 | 36 | 196 | 1.6 | 4.8 | 0.00 | 0.00 | 0.00 | 52 | 1001.3 |
| 20260905223553 | 35 | 225 | 6.4 | 9.7 | 0.00 | 0.00 | 0.00 | 53 | 1001.4 |
| 20260905223048 | 35 | 198 | 0.0 | 1.6 | 0.00 | 0.00 | 0.00 | 53 | 1001.3 |
| 20260905222542 | 36 | 190 | 0.0 | 0.0 | 0.00 | 0.00 | 0.00 | 52 | 1001.2 |
| 20260905222038 | 36 | 191 | 0.0 | 0.0 | 0.00 | 0.00 | 0.00 | 52 | 1001.0 |
| 20260905221534 | 36 | 195 | 0.0 | 1.6 | 0.00 | 0.00 | 0.00 | 51 | 1001.4 |
| 20260905221030 | 36 | 197 | 1.6 | 12.9 | 0.00 | 0.00 | 0.00 | 49 | 1001.3 |
| 20260905220525 | 37 | 219 | 3.2 | 4.8 | 0.00 | 0.00 | 0.00 | 50 | 1001.4 |
| 20260905220021 | 36 | 236 | 1.6 | 4.8 | 0.00 | 0.00 | 0.00 | 48 | 1001.4 |
| 20260905215515 | 36 | 195 | 0.0 | 1.6 | 0.00 | 0.00 | 0.00 | 51 | 1001.3 |
| 20260905215012 | 37 | 193 | 0.0 | 1.6 | 0.00 | 0.00 | 0.00 | 48 | 1001.3 |
| 20260905214508 | 37 | 197 | 0.0 | 6.4 | 0.00 | 0.00 | 0.00 | 46 | 1001.4 |
| 20260905214008 | 37 | 212 | 3.2 | 9.7 | 0.00 | 0.00 | 0.00 | 46 | 1001.3 |
| 20260905213504 | 38 | 188 | 1.6 | 3.2 | 0.00 | 0.00 | 0.00 | 46 | 1001.5 |
| 20260905213004 | 38 | 197 | 0.0 | 3.2 | 0.00 | 0.00 | 0.00 | 44 | 1001.5 |
| 20260905212459 | 38 | 207 | 3.2 | 6.4 | 0.00 | 0.00 | 0.00 | 44 | 1001.4 |
| 20260905211958 | 38 | 192 | 0.0 | 1.6 | 0.00 | 0.00 | 0.00 | 46 | 1001.4 |
| 20260905211453 | 38 | 206 | 3.2 | 6.4 | 0.00 | 0.00 | 0.00 | 43 | 1001.4 |
| 20260905210949 | 38 | 200 | 1.6 | 1.6 | 0.00 | 0.00 | 0.00 | 45 | 1001.5 |
| 20260905210444 | 38 | 192 | 1.6 | 3.2 | 0.00 | 0.00 | 0.00 | 45 | 1001.7 |
| 20260905205944 | 38 | 195 | 0.0 | 1.6 | 0.00 | 0.00 | 0.00 | 44 | 1001.6 |
| 20260905205439 | 38 | 222 | 3.2 | 4.8 | 0.00 | 0.00 | 0.00 | 43 | 1001.5 |
| 20260905204937 | 38 | 194 | 3.2 | 6.4 | 0.00 | 0.00 | 0.00 | 43 | 1001.6 |
| 20260905204433 | 38 | 211 | 6.4 | 9.7 | 0.00 | 0.00 | 0.00 | 44 | 1001.8 |
| 20260905203932 | 38 | 209 | 1.6 | 4.8 | 0.00 | 0.00 | 0.00 | 44 | 1001.8 |
| 20260905203428 | 38 | 198 | 3.2 | 9.7 | 0.00 | 0.00 | 0.00 | 44 | 1002.0 |
| 20260905202923 | 38 | 199 | 3.2 | 4.8 | 0.00 | 0.00 | 0.00 | 44 | 1002.0 |
| 20260905202419 | 38 | 202 | 1.6 | 3.2 | 0.00 | 0.00 | 0.00 | 43 | 1002.2 |
| 20260905201914 | 37 | 234 | 3.2 | 4.8 | 0.00 | 0.00 | 0.00 | 45 | 1002.3 |
| 20260905201409 | 38 | 201 | 1.6 | 1.6 | 0.00 | 0.00 | 0.00 | 47 | 1002.4 |
| 20260905200904 | 38 | 205 | 6.4 | 6.4 | 0.00 | 0.00 | 0.00 | 44 | 1002.6 |
| 20260905200400 | 38 | 245 | 3.2 | 6.4 | 0.00 | 0.00 | 0.00 | 45 | 1002.4 |
| 20260905195857 | 38 | 217 | 8.0 | 11.3 | 0.00 | 0.00 | 0.00 | 45 | 1002.7 |
| 20260905195353 | 37 | 227 | 3.2 | 11.3 | 0.00 | 0.00 | 0.00 | 45 | 1002.7 |
| 20260905194849 | 37 | 175 | 6.4 | 9.7 | 0.00 | 0.00 | 0.00 | 45 | 1002.7 |
| 20260905194348 | 37 | 228 | 6.4 | 6.4 | 0.00 | 0.00 | 0.00 | 45 | 1002.6 |
| 20260905193847 | 37 | 199 | 6.4 | 16.1 | 0.00 | 0.00 | 0.00 | 46 | 1002.7 |
| 20260905193342 | 38 | 198 | 8.0 | 9.7 | 0.00 | 0.00 | 0.00 | 45 | 1002.7 |
| 20260905192838 | 38 | 200 | 3.2 | 6.4 | 0.00 | 0.00 | 0.00 | 45 | 1002.8 |
| 20260905192334 | 38 | 214 | 4.8 | 6.4 | 0.00 | 0.00 | 0.00 | 45 | 1002.8 |
| 20260905191833 | 38 | 200 | 3.2 | 6.4 | 0.00 | 0.00 | 0.00 | 44 | 1003.1 |
| 20260905191332 | 37 | 194 | 0.0 | 1.6 | 0.00 | 0.00 | 0.00 | 47 | 1003.2 |
| 20260905190831 | 38 | 197 | 0.0 | 3.2 | 0.00 | 0.00 | 0.00 | 47 | 1003.2 |
| 20260905190325 | 37 | 197 | 1.6 | 3.2 | 0.00 | 0.00 | 0.00 | 47 | 1003.3 |
| 20260905185823 | 36 | 197 | 1.6 | 6.4 | 0.00 | 0.00 | 0.00 | 50 | 1003.2 |
| 20260905185319 | 35 | 197 | 0.0 | 1.6 | 0.00 | 0.00 | 0.00 | 54 | 1003.2 |
| 20260905184812 | 36 | 204 | 1.6 | 3.2 | 0.00 | 0.00 | 0.00 | 51 | 1003.4 |
| 20260905184311 | 36 | 198 | 0.0 | 1.6 | 0.00 | 0.00 | 0.00 | 48 | 1003.3 |
| 20260905183810 | 36 | 196 | 3.2 | 6.4 | 0.00 | 0.00 | 0.00 | 47 | 1003.5 |
| 20260905183306 | 37 | 191 | 0.0 | 1.6 | 0.00 | 0.00 | 0.00 | 47 | 1003.4 |
| 20260905182800 | 36 | 192 | 0.0 | 3.2 | 0.00 | 0.00 | 0.00 | 48 | 1003.6 |
| 20260905182300 | 36 | 160 | 1.6 | 3.2 | 0.00 | 0.00 | 0.00 | 49 | 1003.6 |
| 20260905181755 | 36 | 187 | 0.0 | 4.8 | 0.00 | 0.00 | 0.00 | 49 | 1003.7 |
| 20260905181254 | 36 | 192 | 0.0 | 0.0 | 0.00 | 0.00 | 0.00 | 51 | 1003.8 |
| 20260905180749 | 35 | 194 | 0.0 | 0.0 | 0.00 | 0.00 | 0.00 | 51 | 1004.0 |
| 20260905180244 | 36 | 191 | 0.0 | 1.6 | 0.00 | 0.00 | 0.00 | 50 | 1004.1 |
| 20260905175744 | 37 | 195 | 0.0 | 0.0 | 0.00 | 0.00 | 0.00 | 48 | 1004.1 |
| 20260905175239 | 37 | 196 | 0.0 | 1.6 | 0.00 | 0.00 | 0.00 | 46 | 1004.1 |
| 20260905174734 | 37 | 196 | 1.6 | 1.6 | 0.00 | 0.00 | 0.00 | 47 | 1004.2 |
| 20260905174230 | 37 | 198 | 0.0 | 1.6 | 0.00 | 0.00 | 0.00 | 47 | 1004.2 |
| 20260905173726 | 37 | 198 | 0.0 | 3.2 | 0.00 | 0.00 | 0.00 | 47 | 1004.1 |
| 20260905173221 | 37 | 197 | 3.2 | 6.4 | 0.00 | 0.00 | 0.00 | 47 | 1004.1 |
| 20260905172721 | 37 | 192 | 0.0 | 1.6 | 0.00 | 0.00 | 0.00 | 49 | 1004.0 |
| 20260905172215 | 37 | 201 | 1.6 | 3.2 | 0.00 | 0.00 | 0.00 | 50 | 1004.1 |
| 20260905171711 | 36 | 191 | 0.0 | 1.6 | 0.00 | 0.00 | 0.00 | 50 | 1004.2 |
| 20260905171207 | 36 | 209 | 1.6 | 4.8 | 0.00 | 0.00 | 0.00 | 48 | 1004.4 |
| 20260905170704 | 37 | 198 | 0.0 | 3.2 | 0.00 | 0.00 | 0.00 | 50 | 1004.6 |
| 20260905170203 | 37 | 225 | 4.8 | 4.8 | 0.00 | 0.00 | 0.00 | 49 | 1004.5 |
| 20260905165658 | 36 | 194 | 3.2 | 4.8 | 0.00 | 0.00 | 0.00 | 50 | 1004.5 |
| 20260905165153 | 36 | 198 | 1.6 | 3.2 | 0.00 | 0.00 | 0.00 | 49 | 1004.6 |
| 20260905164648 | 36 | 194 | 0.0 | 1.6 | 0.00 | 0.00 | 0.00 | 51 | 1004.7 |
| 20260905164147 | 36 | 186 | 0.0 | 1.6 | 0.00 | 0.00 | 0.00 | 51 | 1004.8 |
| 20260905163643 | 36 | 190 | 1.6 | 4.8 | 0.00 | 0.00 | 0.00 | 50 | 1004.7 |
| 20260905163140 | 36 | 198 | 3.2 | 4.8 | 0.00 | 0.00 | 0.00 | 51 | 1004.8 |
| 20260905162636 | 36 | 214 | 1.6 | 3.2 | 0.00 | 0.00 | 0.00 | 53 | 1004.7 |
| 20260905162135 | 35 | 193 | 3.2 | 11.3 | 0.00 | 0.00 | 0.00 | 52 | 1004.9 |
| 20260905161634 | 36 | 189 | 1.6 | 4.8 | 0.00 | 0.00 | 0.00 | 50 | 1004.8 |
| 20260905161132 | 36 | 217 | 3.2 | 11.3 | 0.00 | 0.00 | 0.00 | 52 | 1004.8 |
| 20260905160626 | 36 | 196 | 0.0 | 1.6 | 0.00 | 0.00 | 0.00 | 54 | 1004.9 |
| 20260905160121 | 36 | 201 | 1.6 | 6.4 | 0.00 | 0.00 | 0.00 | 55 | 1004.8 |
| 20260905155615 | 36 | 192 | 1.6 | 3.2 | 0.00 | 0.00 | 0.00 | 53 | 1004.7 |
| 20260905155114 | 36 | 198 | 1.6 | 3.2 | 0.00 | 0.00 | 0.00 | 54 | 1005.0 |
| 20260905154608 | 35 | 182 | 0.0 | 0.0 | 0.00 | 0.00 | 0.00 | 56 | 1005.0 |
| 20260905154104 | 35 | 204 | 1.6 | 1.6 | 0.00 | 0.00 | 0.00 | 58 | 1005.1 |
| 20260905153600 | 35 | 194 | 1.6 | 1.6 | 0.00 | 0.00 | 0.00 | 57 | 1005.1 |
| 20260905153100 | 35 | 193 | 0.0 | 1.6 | 0.00 | 0.00 | 0.00 | 58 | 1005.1 |
| 20260905152555 | 35 | 195 | 0.0 | 1.6 | 0.00 | 0.00 | 0.00 | 58 | 1005.2 |
| 20260905152050 | 35 | 191 | 0.0 | 0.0 | 0.00 | 0.00 | 0.00 | 59 | 1005.4 |
| 20260905151545 | 35 | 200 | 1.6 | 1.6 | 0.00 | 0.00 | 0.00 | 60 | 1005.4 |
| 20260905151040 | 34 | 193 | 0.0 | 1.6 | 0.00 | 0.00 | 0.00 | 61 | 1005.3 |
| 20260905150535 | 34 | 193 | 0.0 | 1.6 | 0.00 | 0.00 | 0.00 | 61 | 1005.3 |
| 20260905150033 | 33 | 193 | 0.0 | 1.6 | 0.00 | 0.00 | 0.00 | 61 | 1005.5 |
| 20260905145526 | 33 | 189 | 0.0 | 0.0 | 0.00 | 0.00 | 0.00 | 62 | 1005.4 |
| 20260905145021 | 33 | 196 | 0.0 | 0.0 | 0.00 | 0.00 | 0.00 | 63 | 1005.4 |
| 20260905144516 | 33 | 194 | 1.6 | 3.2 | 0.00 | 0.00 | 0.00 | 63 | 1005.5 |
| 20260905144015 | 33 | 192 | 0.0 | 1.6 | 0.00 | 0.00 | 0.00 | 66 | 1005.4 |
| 20260905143514 | 33 | 177 | 0.0 | 0.0 | 0.00 | 0.00 | 0.00 | 66 | 1005.6 |
| 20260905143009 | 33 | 192 | 0.0 | 0.0 | 0.00 | 0.00 | 0.00 | 67 | 1005.4 |
| 20260905142508 | 32 | 185 | 0.0 | 0.0 | 0.00 | 0.00 | 0.00 | 69 | 1005.5 |
| 20260905142004 | 32 | 188 | 0.0 | 0.0 | 0.00 | 0.00 | 0.00 | 71 | 1005.5 |
| 20260905141503 | 32 | 189 | 0.0 | 0.0 | 0.00 | 0.00 | 0.00 | 73 | 1005.5 |
| 20260905141000 | 31 | 191 | 0.0 | 0.0 | 0.00 | 0.00 | 0.00 | 75 | 1005.3 |
| 20260905140454 | 31 | 190 | 0.0 | 0.0 | 0.00 | 0.00 | 0.00 | 75 | 1005.5 |
| 20260905135953 | 30 | 191 | 0.0 | 0.0 | 0.00 | 0.00 | 0.00 | 76 | 1005.7 |
| 20260905135449 | 30 | 194 | 0.0 | 0.0 | 0.00 | 0.00 | 0.00 | 76 | 1005.7 |
| 20260905134944 | 31 | 188 | 0.0 | 0.0 | 0.00 | 0.00 | 0.00 | 77 | 1005.5 |
| 20260905134443 | 31 | 187 | 0.0 | 0.0 | 0.00 | 0.00 | 0.00 | 76 | 1005.5 |
| 20260905133942 | 30 | 187 | 0.0 | 0.0 | 0.00 | 0.00 | 0.00 | 80 | 1005.4 |
| 20260905133437 | 29 | 186 | 0.0 | 0.0 | 0.00 | 0.00 | 0.00 | 82 | 1005.7 |
| 20260905132932 | 28 | 193 | 0.0 | 0.0 | 0.00 | 0.00 | 0.00 | 84 | 1005.7 |
| 20260905132427 | 28 | 193 | 0.0 | 0.0 | 0.00 | 0.00 | 0.00 | 86 | 1005.8 |
| 20260905131922 | 28 | 193 | 0.0 | 0.0 | 0.00 | 0.00 | 0.00 | 88 | 1005.6 |
| 20260905131418 | 28 | 192 | 0.0 | 0.0 | 0.00 | 0.00 | 0.00 | 89 | 1005.7 |
| 20260905130913 | 27 | 193 | 0.0 | 0.0 | 0.00 | 0.00 | 0.00 | 91 | 1005.4 |
| 20260905130412 | 27 | 193 | 0.0 | 0.0 | 0.00 | 0.00 | 0.00 | 92 | 1005.3 |
| 20260905125907 | 26 | 193 | 0.0 | 0.0 | 0.00 | 0.00 | 0.00 | 93 | 1005.5 |
| 20260905125407 | 26 | 193 | 0.0 | 0.0 | 0.00 | 0.00 | 0.00 | 94 | 1005.6 |
| 20260905124902 | 25 | 194 | 0.0 | 0.0 | 0.00 | 0.00 | 0.00 | 94 | 1005.6 |
| 20260905124359 | 25 | 194 | 0.0 | 0.0 | 0.00 | 0.00 | 0.00 | 94 | 1005.7 |
| 20260905123858 | 25 | 193 | 0.0 | 0.0 | 0.00 | 0.00 | 0.00 | 95 | 1005.6 |
| 20260905123355 | 25 | 193 | 0.0 | 0.0 | 0.00 | 0.00 | 0.00 | 95 | 1005.6 |
| 20260905122850 | 24 | 193 | 0.0 | 0.0 | 0.00 | 0.00 | 0.00 | 95 | 1005.6 |
| 20260905122349 | 24 | 194 | 0.0 | 0.0 | 0.00 | 0.00 | 0.00 | 95 | 1005.4 |
| 20260905121845 | 23 | 194 | 0.0 | 0.0 | 0.00 | 0.00 | 0.00 | 95 | 1005.4 |